SHIJIAN-28 (SJ-28)

Last updated on Sun Jun 21 2026 00:03:10 GMT+0000 (Coordinated Universal Time)

1 66549U 25277A 26171.47940817 -.00000364 00000+0 00000+0 0 9992 2 66549 4.5287 272.0817 0001125 39.3140 246.6563 1.00276035 2181
UTC large
Height (km)
Speed (km/s)
/
Latitude / Longitude
Inclination (degrees)
Orbital Period (minutes)
Azimuth
Elevation
Range (km)
Doppler Factor

Next 0 passes for location: London (51.5072 / 0.1276)

No passes found over London.
SHIJIAN-28 (SJ-28)